SSEC Globe Logo

Space Science and Engineering Center

Wisconsin State Observations

ASUS43 KMKX 271520                                              2022270 1520
RWRWI
WISCONSIN REGIONAL WEATHER ROUNDUP
NATIONAL WEATHER SERVICE MILWAUKEE/SULLIVAN WI
NOTE: "FAIR" INDICATES FEW OR NO CLOUDS BELOW 12,000 FEET WITH NO
SIGNIFICANT WEATHER AND/OR OBSTRUCTIONS TO VISIBILITY.

CITY           SKY/WX    TMP DP  RH WIND       PRES   REMARKS
SUPERIOR ARPT  SUNNY     46  31  56 N9        30.26R
ASHLAND        CLOUDY    45  37  73 N13       30.22R
HAYWARD        PTSUNNY   43  34  70 N10G17    30.21R
SIREN          MOSUNNY   43  30  59 NE13G21   30.25R
CUMBERLAND     PTSUNNY   45  32  61 N15       30.23R
RICE LAKE      PTSUNNY   43  33  67 N10G16    30.24R
CHETEK         PTSUNNY   48  34  59 N9        30.23R
LADYSMITH      CLOUDY    46  37  68 N13G18    30.20R
EAU CLAIRE     SUNNY     47  33  58 N14G24    30.20R
MENOMONIE      PTSUNNY   49  36  62 NW12G17   30.23R
NEW RICHMOND   SUNNY     47  33  59 N14       30.24R
OSCEOLA        SUNNY     49  38  65 N12       30.29R


CITY           SKY/WX    TMP DP  RH WIND       PRES   REMARKS
MANITOWISH WTR CLOUDY    43  40  87 N10G17    30.15R
ARBOR VITAE    CLOUDY    43  37  80 N17G25    30.13R
WOODRUFF       CLOUDY    43  37  80 N17G25    30.13R
RHINELANDER    CLOUDY    44  35  70 N9G18     30.11R
EAGLE RIVER    LGT RAIN  42  40  94 N13G18    30.11R
LAND O LAKES   RAIN      42  40  95 N13G20    30.13R
PHILLIPS       CLOUDY    41  39  93 N6        30.16R
TOMAHAWK       CLOUDY    45  38  76 NW10G17   30.13R
MEDFORD        CLOUDY    42  38  86 N10G18    30.15R
MERRILL        CLOUDY    45  37  74 N14G21    30.12R


CITY           SKY/WX    TMP DP  RH WIND       PRES   REMARKS
WAUSAU         CLOUDY    47  37  68 NW13G21   30.11R
MOSINEE        PTSUNNY   45  37  76 N14G20    30.13R
MARSHFIELD     PTSUNNY   45  37  73 N16G22    30.14R
STEVENS POINT  PTSUNNY   48  35  59 N14G20    30.13R
WAUPACA        PTSUNNY   50  39  64 N14G20    30.12R
WAUTOMA        PTSUNNY   47  39  74 NW12      30.12R
WISC RAPIDS    MOSUNNY   48  38  68 N12G20    30.15R
CAMP DOUGLAS   MOSUNNY   48  39  71 NW10      30.14R


CITY           SKY/WX    TMP DP  RH WIND       PRES   REMARKS
ANTIGO         CLOUDY    44  38  77 NW15G23   30.09R
SHAWANO        CLOUDY    50  44  80 NW6       30.08R
OCONTO         CLOUDY    50  39  65 N17       30.05R
STURGEON BAY   CLOUDY    48  40  73 NW18      30.03R
GREEN BAY      PTSUNNY   52  39  61 NW17G24   30.06R
MANITOWOC      PTSUNNY   48  40  73 NW16      30.04R
APPLETON       PTSUNNY   46  37  71 NW13G21   30.06R
CLINTONVILLE   CLOUDY    48  39  70 NW9       30.11R
OSHKOSH        MOSUNNY   49  39  68 N15G22    30.08R


CITY           SKY/WX    TMP DP  RH WIND       PRES   REMARKS
LA CROSSE      SUNNY     51  36  56 N10G20    30.19R
SPARTA         MOSUNNY   48  37  64 N9        30.18R
VIROQUA        SUNNY     48  39  70 N12       30.17R
BOSCOBEL       SUNNY     52  39  61 VRB7      30.18R
PRAIRIE DU CHI SUNNY     52  36  54 N12       30.18R
PLATTEVILLE    SUNNY     53  38  56 N12G17    30.16R

CITY           SKY/WX    TMP DP  RH WIND       PRES   REMARKS
REEDSBURG      SUNNY     48  36  63 NW14G24   30.14R
BARABOO/DELLS  SUNNY     46  35  65 NW12      30.13R
LONE ROCK      SUNNY     54  40  59 NW12G21   30.15R
MINERAL POINT  SUNNY     52  36  54 NW13G21   30.14S
MADISON        PTSUNNY   50  38  63 NW12G21   30.12R
MIDDLETON      PTSUNNY   51  38  62 NW14G20   30.13R
WATERTOWN      MOSUNNY   50  37  60 N13G20    30.09R
MONROE         SUNNY     51  38  62 NW12      30.12R
JANESVILLE     MOSUNNY   54  39  58 NW13G18   30.10R


CITY           SKY/WX    TMP DP  RH WIND       PRES   REMARKS
MILWAUKEE      MOSUNNY   53  37  54 NW15G26   30.05R
WAUKESHA       MOSUNNY   48  39  71 NW13G18   30.08R
MILWAUKEE/TIMM MOSUNNY   50  37  62 NW16      30.06R
RACINE         MOSUNNY   52  38  58 NW12G26   30.07R
KENOSHA        MOSUNNY   53  39  59 NW16G29   30.07R
FOND DU LAC    MOSUNNY   50  38  63 NW18      30.08R
SHEBOYGAN      CLOUDY    50  41  71 N18G25    30.04R
WEST BEND      PTSUNNY   46  41  81 NW15      30.07R
JUNEAU         MOSUNNY   48  38  68 NW9G20    30.10R
LSZ147-162-271600-
LAKE SUPERIOR

STATION/POSITION TIME  TEMP    WIND        PRES    WAVE
                       AIR SEA DIR/SP/G            HT/PER
                 (UTC) (F)     (DEG/KT/KT) (MB)    (FT/S)
W MID LAKE BUOY  1500      54  360/ 19/ 23 1022.1
DEVILS ISLAND    1500   43      10/ 20/ 22 1024.0R
PORT WING        1440   44      10/ 13/ 17 1023.4R
SAXON HARBOR     1430   47     360/ 15/ 19 1021.7R

LMZ867-665-643>646-271600-
LAKE MICHIGAN

STATION/POSITION TIME  TEMP    WIND        PRES    WAVE
                       AIR SEA DIR/SP/G            HT/PER
                 (UTC) (F)     (DEG/KT/KT) (MB)    (FT/S)
CHAMBERS ISLAND  1440   48     280/ 18/ 24   N/A
N MID LAKE BUOY  1500   50 63  340/ 21/ 27 1014.5
NORTHPORT PIER   1400          290/ 21/ 29 1015.6
KEWAUNEE LAKESHO 1448   50     330/ 12/ 22 1015.6R
SHEBOYGAN LAKESH 1500   48     330/ 16/ 20 1017.7R
PORT WASHINGTON  1440   50     300/  9/ 14 1018.6R
ATWATER BUOY     1500   52 64  290/ 17/ 23 1019.4    4/ 7
MILWAUKEE LAKESH 1500   51     320/ 12/ 16   N/A
S MID LAKE BUOY  1500   52 62  320/ 21/ 27 1017.0
KENOSHA   LAKESH 1500   50     320/ 17/ 23 1017.9
TC  - TEMPERATURE IN CELSIUS
VSB - VISIBILITY IN STATUTE MILES
WCI - WIND CHILL INDEX
HX  - HEAT INDEX